Time,TemperatureF,DewpointF,PressureIn,WindDirection,WindDirectionDegrees,WindSpeedMPH,WindSpeedGustMPH,Humidity,HourlyPrecipIn,Conditions,Clouds,dailyrainin,SoftwareType,DateUTC
2013-02-22 00:04:00,32.2,20.0,30.22,NE,45,2.0,-999.0,61,-99.99,,,0.00,weatherlink.com 1.10,2013-02-22 05:04:00,
2013-02-22 00:19:00,32.1,20.0,30.23,NNW,347,0.0,-999.0,61,-99.99,,,0.00,weatherlink.com 1.10,2013-02-22 05:19:00,
2013-02-22 00:34:00,32.0,20.0,30.23,NNE,32,4.0,-999.0,61,-99.99,,,0.00,weatherlink.com 1.10,2013-02-22 05:34:00,
2013-02-22 00:49:00,32.0,20.0,30.25,NE,53,3.0,-999.0,61,-99.99,,,0.00,weatherlink.com 1.10,2013-02-22 05:49:00,
2013-02-22 01:05:00,32.0,20.0,30.24,NE,46,5.0,-999.0,61,-99.99,,,0.00,weatherlink.com 1.10,2013-02-22 06:05:00,
2013-02-22 01:20:00,31.8,20.0,30.23,NE,44,5.0,-999.0,62,-99.99,,,0.00,weatherlink.com 1.10,2013-02-22 06:20:00,
2013-02-22 01:35:00,31.6,20.0,30.22,NE,48,2.0,-999.0,62,-99.99,,,0.00,weatherlink.com 1.10,2013-02-22 06:35:00,
2013-02-22 01:50:00,31.4,20.0,30.24,NNW,348,1.0,-999.0,63,-99.99,,,0.00,weatherlink.com 1.10,2013-02-22 06:50:00,
2013-02-22 02:05:00,-999.0,-99.9,30.24,North,-999,-999.0,-999.0,-999,-99.99,,,0.00,weatherlink.com 1.10,2013-02-22 07:05:00,
2013-02-22 02:20:00,-999.0,-99.9,30.24,North,-999,-999.0,-999.0,-999,-99.99,,,0.00,weatherlink.com 1.10,2013-02-22 07:20:00,
2013-02-22 02:35:00,-999.0,-99.9,30.25,North,-999,-999.0,-999.0,-999,-99.99,,,0.00,weatherlink.com 1.10,2013-02-22 07:35:00,
2013-02-22 02:50:00,-999.0,-99.9,30.26,North,-999,-999.0,-999.0,-999,-99.99,,,0.00,weatherlink.com 1.10,2013-02-22 07:50:00,
2013-02-22 03:05:00,-999.0,-99.9,30.26,North,-999,-999.0,-999.0,-999,-99.99,,,0.00,weatherlink.com 1.10,2013-02-22 08:05:00,
2013-02-22 03:20:00,-999.0,-99.9,30.27,North,-999,-999.0,-999.0,-999,-99.99,,,0.00,weatherlink.com 1.10,2013-02-22 08:20:00,
2013-02-22 03:35:00,31.5,21.0,30.28,North,350,2.0,-999.0,64,-99.99,,,0.00,weatherlink.com 1.10,2013-02-22 08:35:00,
2013-02-22 03:50:00,31.5,21.0,30.29,North,349,0.0,-999.0,64,-99.99,,,0.00,weatherlink.com 1.10,2013-02-22 08:50:00,
2013-02-22 04:05:00,31.5,21.0,30.30,NNW,340,0.0,-999.0,64,-99.99,,,0.00,weatherlink.com 1.10,2013-02-22 09:05:00,
2013-02-22 04:20:00,31.5,21.0,30.30,NNW,340,0.0,-999.0,64,-99.99,,,0.00,weatherlink.com 1.10,2013-02-22 09:20:00,
2013-02-22 04:35:00,31.4,20.0,30.30,NNW,344,0.0,-999.0,64,-99.99,,,0.00,weatherlink.com 1.10,2013-02-22 09:35:00,
2013-02-22 04:50:00,31.5,21.0,30.31,NNW,344,0.0,-999.0,65,-99.99,,,0.00,weatherlink.com 1.10,2013-02-22 09:50:00,
2013-02-22 05:05:00,31.5,21.0,30.30,NE,49,0.0,-999.0,65,-99.99,,,0.00,weatherlink.com 1.10,2013-02-22 10:05:00,
2013-02-22 05:20:00,31.4,21.0,30.26,ENE,76,0.0,-999.0,65,-99.99,,,0.00,weatherlink.com 1.10,2013-02-22 10:20:00,
2013-02-22 05:35:00,31.2,21.0,30.28,NE,55,5.0,-999.0,66,-99.99,,,0.00,weatherlink.com 1.10,2013-02-22 10:35:00,
2013-02-22 05:50:00,31.2,21.0,30.28,NE,35,0.0,-999.0,66,-99.99,,,0.00,weatherlink.com 1.10,2013-02-22 10:50:00,
2013-02-22 06:05:00,31.1,21.0,30.28,ENE,58,0.0,-999.0,66,-99.99,,,0.00,weatherlink.com 1.10,2013-02-22 11:05:00,
2013-02-22 06:20:00,31.0,21.0,30.27,NE,44,5.0,-999.0,66,-99.99,,,0.00,weatherlink.com 1.10,2013-02-22 11:20:00,
2013-02-22 06:35:00,30.8,21.0,30.27,ENE,64,4.0,-999.0,67,-99.99,,,0.00,weatherlink.com 1.10,2013-02-22 11:35:00,
2013-02-22 06:50:00,30.8,21.0,30.28,ENE,58,5.0,-999.0,67,-99.99,,,0.00,weatherlink.com 1.10,2013-02-22 11:50:00,
2013-02-22 07:05:00,30.8,21.0,30.30,ENE,73,2.0,-999.0,67,-99.99,,,0.00,weatherlink.com 1.10,2013-02-22 12:05:00,
2013-02-22 07:20:00,30.9,21.0,30.30,ENE,63,0.0,-999.0,68,-99.99,,,0.00,weatherlink.com 1.10,2013-02-22 12:20:00,
2013-02-22 07:35:00,31.0,22.0,30.31,NE,55,0.0,-999.0,68,-99.99,,,0.00,weatherlink.com 1.10,2013-02-22 12:35:00,
2013-02-22 07:50:00,31.0,21.0,30.32,NE,52,7.0,-999.0,67,-99.99,,,0.00,weatherlink.com 1.10,2013-02-22 12:50:00,
2013-02-22 08:05:00,31.0,22.0,30.31,NNE,27,3.0,-999.0,68,-99.99,,,0.00,weatherlink.com 1.10,2013-02-22 13:05:00,
2013-02-22 08:21:00,31.1,22.0,30.31,ENE,76,2.0,-999.0,68,-99.99,,,0.00,weatherlink.com 1.10,2013-02-22 13:21:00,
2013-02-22 08:36:00,31.4,22.0,30.30,NNE,17,2.0,-999.0,68,-99.99,,,0.00,weatherlink.com 1.10,2013-02-22 13:36:00,
2013-02-22 08:51:00,31.5,22.0,30.29,NE,45,4.0,-999.0,68,-99.99,,,0.00,weatherlink.com 1.10,2013-02-22 13:51:00,
2013-02-22 09:06:00,31.6,22.0,30.28,ESE,113,1.0,-999.0,69,-99.99,,,0.00,weatherlink.com 1.10,2013-02-22 14:06:00,
2013-02-22 09:21:00,31.7,22.0,30.27,East,98,0.0,-999.0,68,-99.99,,,0.00,weatherlink.com 1.10,2013-02-22 14:21:00,
2013-02-22 09:36:00,31.9,23.0,30.27,ENE,75,2.0,-999.0,69,-99.99,,,0.00,weatherlink.com 1.10,2013-02-22 14:36:00,
2013-02-22 09:51:00,32.3,23.0,30.27,East,92,0.0,-999.0,68,-99.99,,,0.00,weatherlink.com 1.10,2013-02-22 14:51:00,
2013-02-22 10:06:00,32.4,23.0,30.27,East,87,0.0,-999.0,68,-99.99,,,0.00,weatherlink.com 1.10,2013-02-22 15:06:00,
2013-02-22 10:21:00,32.5,23.0,30.26,NE,44,4.0,-999.0,68,-99.99,,,0.00,weatherlink.com 1.10,2013-02-22 15:21:00,
2013-02-22 10:36:00,32.8,23.0,30.26,ESE,111,4.0,-999.0,68,-99.99,,,0.00,weatherlink.com 1.10,2013-02-22 15:36:00,
2013-02-22 10:51:00,33.2,24.0,30.26,East,88,0.0,-999.0,68,-99.99,,,0.00,weatherlink.com 1.10,2013-02-22 15:51:00,
2013-02-22 11:06:00,33.0,23.0,30.26,East,88,3.0,-999.0,68,-99.99,,,0.00,weatherlink.com 1.10,2013-02-22 16:06:00,
2013-02-22 11:21:00,33.2,24.0,30.28,East,99,0.0,-999.0,68,-99.99,,,0.00,weatherlink.com 1.10,2013-02-22 16:21:00,
2013-02-22 11:36:00,33.2,24.0,30.27,East,94,1.0,-999.0,68,-99.99,,,0.00,weatherlink.com 1.10,2013-02-22 16:36:00,
2013-02-22 11:51:00,33.5,25.0,30.27,SSE,166,2.0,-999.0,70,-99.99,,,0.00,weatherlink.com 1.10,2013-02-22 16:51:00,
2013-02-22 12:06:00,33.2,25.0,30.26,SE,127,0.0,-999.0,72,-99.99,,,0.00,weatherlink.com 1.10,2013-02-22 17:06:00,
2013-02-22 12:21:00,33.4,25.0,30.26,ESE,118,0.0,-999.0,72,-99.99,,,0.00,weatherlink.com 1.10,2013-02-22 17:21:00,
2013-02-22 12:36:00,33.5,25.0,30.25,East,91,0.0,-999.0,72,-99.99,,,0.00,weatherlink.com 1.10,2013-02-22 17:36:00,
2013-02-22 12:51:00,33.2,26.0,30.24,ESE,123,0.0,-999.0,74,-99.99,,,0.00,weatherlink.com 1.10,2013-02-22 17:51:00,
2013-02-22 13:06:00,33.3,26.0,30.25,SE,133,0.0,-999.0,75,-99.99,,,0.00,weatherlink.com 1.10,2013-02-22 18:06:00,
2013-02-22 13:21:00,33.4,27.0,30.25,SSE,167,0.0,-999.0,76,-99.99,,,0.00,weatherlink.com 1.10,2013-02-22 18:21:00,
2013-02-22 13:36:00,33.1,27.0,30.24,SSE,166,0.0,-999.0,78,-99.99,,,0.01,weatherlink.com 1.10,2013-02-22 18:36:00,
2013-02-22 13:51:00,33.1,28.0,30.24,SSE,166,0.0,-999.0,80,-99.99,,,0.02,weatherlink.com 1.10,2013-02-22 18:51:00,
2013-02-22 14:06:00,32.7,28.0,30.23,SSE,161,0.0,-999.0,83,-99.99,,,0.02,weatherlink.com 1.10,2013-02-22 19:06:00,
2013-02-22 14:21:00,32.4,28.0,30.23,SSE,161,0.0,-999.0,84,-99.99,,,0.02,weatherlink.com 1.10,2013-02-22 19:21:00,
2013-02-22 14:36:00,32.3,28.0,30.22,SSE,161,1.0,-999.0,84,-99.99,,,0.02,weatherlink.com 1.10,2013-02-22 19:36:00,
2013-02-22 14:51:00,32.4,28.0,30.22,SSE,161,0.0,-999.0,85,-99.99,,,0.03,weatherlink.com 1.10,2013-02-22 19:51:00,
2013-02-22 15:06:00,32.6,29.0,30.21,SSE,156,3.0,-999.0,86,-99.99,,,0.03,weatherlink.com 1.10,2013-02-22 20:06:00,
2013-02-22 15:21:00,32.4,29.0,30.22,SE,142,1.0,-999.0,86,-99.99,,,0.03,weatherlink.com 1.10,2013-02-22 20:21:00,
2013-02-22 15:36:00,32.5,29.0,30.21,SE,142,0.0,-999.0,86,-99.99,,,0.03,weatherlink.com 1.10,2013-02-22 20:36:00,
2013-02-22 15:51:00,32.6,29.0,30.21,SE,142,0.0,-999.0,86,-99.99,,,0.03,weatherlink.com 1.10,2013-02-22 20:51:00,
2013-02-22 16:06:00,32.6,29.0,30.22,SE,142,0.0,-999.0,86,-99.99,,,0.03,weatherlink.com 1.10,2013-02-22 21:06:00,
2013-02-22 16:21:00,32.6,29.0,30.21,ESE,115,2.0,-999.0,87,-99.99,,,0.04,weatherlink.com 1.10,2013-02-22 21:21:00,
2013-02-22 16:36:00,32.5,29.0,30.21,ESE,115,0.0,-999.0,87,-99.99,,,0.04,weatherlink.com 1.10,2013-02-22 21:36:00,
2013-02-22 16:51:00,32.6,30.0,30.21,ESE,115,1.0,-999.0,88,-99.99,,,0.04,weatherlink.com 1.10,2013-02-22 21:51:00,
2013-02-22 17:06:00,32.4,29.0,30.20,ENE,65,0.0,-999.0,88,-99.99,,,0.04,weatherlink.com 1.10,2013-02-22 22:06:00,
2013-02-22 17:21:00,32.4,29.0,30.20,ENE,74,0.0,-999.0,88,-99.99,,,0.04,weatherlink.com 1.10,2013-02-22 22:21:00,
2013-02-22 17:36:00,32.4,29.0,30.20,ENE,74,0.0,-999.0,88,-99.99,,,0.04,weatherlink.com 1.10,2013-02-22 22:36:00,
2013-02-22 17:51:00,32.4,29.0,30.20,SE,134,2.0,-999.0,88,-99.99,,,0.04,weatherlink.com 1.10,2013-02-22 22:51:00,
2013-02-22 18:06:00,32.3,30.0,30.20,ESE,109,0.0,-999.0,89,-99.99,,,0.05,weatherlink.com 1.10,2013-02-22 23:06:00,
2013-02-22 18:21:00,32.3,30.0,30.20,ESE,110,2.0,-999.0,90,-99.99,,,0.05,weatherlink.com 1.10,2013-02-22 23:21:00,
2013-02-22 18:36:00,32.2,30.0,30.20,ESE,110,0.0,-999.0,90,-99.99,,,0.05,weatherlink.com 1.10,2013-02-22 23:36:00,
2013-02-22 18:51:00,32.3,30.0,30.20,ESE,111,1.0,-999.0,90,-99.99,,,0.05,weatherlink.com 1.10,2013-02-22 23:51:00,
2013-02-22 19:06:00,32.3,30.0,30.20,East,95,1.0,-999.0,90,-99.99,,,0.05,weatherlink.com 1.10,2013-02-23 00:06:00,
2013-02-22 19:21:00,32.5,30.0,30.20,East,95,0.0,-999.0,91,-99.99,,,0.05,weatherlink.com 1.10,2013-02-23 00:21:00,
2013-02-22 19:36:00,32.5,30.0,30.20,East,95,0.0,-999.0,91,-99.99,,,0.05,weatherlink.com 1.10,2013-02-23 00:36:00,
2013-02-22 19:51:00,32.4,30.0,30.19,East,100,0.0,-999.0,91,-99.99,,,0.05,weatherlink.com 1.10,2013-02-23 00:51:00,
2013-02-22 20:06:00,32.4,30.0,30.19,East,99,0.0,-999.0,91,-99.99,,,0.05,weatherlink.com 1.10,2013-02-23 01:06:00,
2013-02-22 20:21:00,32.5,30.0,30.19,East,92,4.0,-999.0,91,-99.99,,,0.05,weatherlink.com 1.10,2013-02-23 01:21:00,
2013-02-22 20:36:00,32.5,30.0,30.19,East,92,0.0,-999.0,91,-99.99,,,0.05,weatherlink.com 1.10,2013-02-23 01:36:00,
2013-02-22 20:51:00,32.5,31.0,30.19,East,92,0.0,-999.0,92,-99.99,,,0.05,weatherlink.com 1.10,2013-02-23 01:51:00,
2013-02-22 21:06:00,32.5,31.0,30.18,East,92,0.0,-999.0,92,-99.99,,,0.05,weatherlink.com 1.10,2013-02-23 02:06:00,
2013-02-22 21:21:00,32.6,31.0,30.19,East,92,0.0,-999.0,92,-99.99,,,0.05,weatherlink.com 1.10,2013-02-23 02:21:00,
2013-02-22 21:36:00,32.8,31.0,30.18,East,92,0.0,-999.0,92,-99.99,,,0.05,weatherlink.com 1.10,2013-02-23 02:36:00,
2013-02-22 21:51:00,32.9,31.0,30.18,East,92,0.0,-999.0,93,-99.99,,,0.05,weatherlink.com 1.10,2013-02-23 02:51:00,
2013-02-22 22:06:00,32.7,31.0,30.17,East,92,0.0,-999.0,93,-99.99,,,0.06,weatherlink.com 1.10,2013-02-23 03:06:00,
2013-02-22 22:21:00,32.7,31.0,30.17,East,92,0.0,-999.0,93,-99.99,,,0.06,weatherlink.com 1.10,2013-02-23 03:21:00,
2013-02-22 22:36:00,32.7,31.0,30.17,East,92,0.0,-999.0,94,-99.99,,,0.06,weatherlink.com 1.10,2013-02-23 03:36:00,
2013-02-22 22:51:00,32.8,31.0,30.16,East,92,1.0,-999.0,94,-99.99,,,0.06,weatherlink.com 1.10,2013-02-23 03:51:00,
2013-02-22 23:06:00,32.9,31.0,30.16,East,92,0.0,-999.0,94,-99.99,,,0.06,weatherlink.com 1.10,2013-02-23 04:06:00,
2013-02-22 23:21:00,32.9,32.0,30.16,East,92,0.0,-999.0,95,-99.99,,,0.06,weatherlink.com 1.10,2013-02-23 04:21:00,
2013-02-22 23:36:00,32.8,32.0,30.16,East,92,1.0,-999.0,95,-99.99,,,0.07,weatherlink.com 1.10,2013-02-23 04:36:00,
2013-02-22 23:51:00,32.7,32.0,30.14,East,92,0.0,-999.0,95,-99.99,,,0.07,weatherlink.com 1.10,2013-02-23 04:51:00,